[Date Prev][Date Next][Thread Prev][Thread Next][Date Index][Thread Index]

[jamsat-news:1736] jas2info #284



========================   最新情報   ==============================

        Last updated  29Jul2002  17:30(JST)   #284

====================================================================
   
1)アマチュア通信衛星情報、FOシリーズの軌道要素、テレメトリ、QSOの
   状況等をまとめてみました.
   
 FO−29の2002年7月29日(月)の16:09(JST)のパスでは
JARLのホームページのとうりアナログ運用でした。 今日までの観測した
テレメトリーと最終の分析結果を報告しておきます。

AS29370C  29Jul2002
16:18-16:25(JST)
AOS   MEL  LOS  Elev
 36    94  149  16.3
Freq. 435.792-.788Hz
(JAS-2 No.105 B 1475-1955)
                                                                  87 8F 84 
HI HI AE 07 88 55 00 D4 2C 94 09 39 94 68 73 4D 93 8E 9C 8D 93 8B 87 8F 84 
HI HI AE 07 88 55 00 D4 2C 94 09 39 8F 6B 73 4E 92 8E 9B 8A 93 8A 87 90 85 
HI HI AE 07 88 55 00 D4 2C 94 09 39 89 6D 70 50 92 8D 9B 71 93 8A 87 90 85 
HI HI AE 07 88 55 00 D4 2C 94 09 39 81 6E 6E 51 91 8D 9A 70 93 8A 88 90 84 
HI HI AE 07 88 55 00 D4 2C 94 09 39 77 6D 6F 51 91 8C 9A 7D 93 8A 88 90 84 
HI HI AE 07 88 55 00 D4 2C 94 09 39 6C 6B 72 50 91 8D 9B 7B 92 8A 88 90 85 
HI HI AE 07 88 55 00 D4 2C 94 09 39 61 6A 73 4F 92 8E 9B 86 92 8A 88 8F 85 
HI HI AE 07 88 55 00 D4 2C 94 09 39 57 68 75 4E 93 8E 9C 84 92 8A 88 8F 85 
HI HI AE 07 88 55 00 D4 2C 94 09 39 4E 67 74 52 93 8E 9C 7C 92 8A 88 8F 85

AS29316C  25Jul2002
16:30-16:34(JST)
AOS   MEL  LOS  Elev
 35    95  153   18
Freq. 435.789-.788Hz
(JAS-2 No.105 B 1245-1475)
                                                               8F 91 8B 85 
HI HI AE 07 88 55 00 D4 F0 B1 09 67 5A 41 72 4E 90 8D 9A 73 8C 90 91 8C 85
HI HI AE 07 88 55 00 D4 F0 B1 09 67 59 42 71 4E 90 8C 99 70 8C 90 91 8C 85 
HI HI AE 07 88 55 00 D4 F0 B1 09 67 59 43 73 4E 90 8C 9A 6E 8C 90 91 8C 85 
HI HI AE 07 88 55 00 D4 F0 B1 09 67 5B 44 74 4F 91 8D 9A 7D 8C 90 91 8B 85 
HI HI AE 07 88 55 00 D4 F0 B1 09 67 5D 45 75 4D 91 8E 9B 7D 8D 90 91 8B 85 

AS29277C  22Jul2002
19:02-19:16(JST)
AOS   MEL  LOS  Elev
355   292  230  23.6
Freq. 435.798-.787Hz
(JAS-2 No.105 B 675-1245)
                                                         6C 92 8B 89 8F 84 
HI HI AE 07 88 55 00 D4 DB 7F 09 60 5F 65 6A 52 8E 8A 97 7E 92 8C 8A 8E 84 
HI HI AE 07 88 55 00 D4 DB 7F 09 60 5E       4A 8E 8B 97 73 92 8C 8A 8F 84 
HI HI AE 07 88 55 00 D4 DB 7F 09 60 4E 78 75 4D 90 8D 9A 79 92 8C 8A 8F 84 
HI HI AE 07 88 55 00 S4 DB 7F 09 60 48 81 75 4A 92 8E 9C 7D 92 8C 8A 8F 84 
HI HI AE 07 88 55 00 D4 DB 7F 09 60 44 89 7D 49 93 8F 9C 6D 92 8C 8A 8F 84 
HI HI AE 07 88 55 00 D4 DB 7F 09 60 44 90 7E 48 92 8E 9C 72 92 8C 8A 8F 84 
HI HI AE 07 88 55 00 D4 DB 7F 09 60 44 96 6E 48 93 8F 9C 94 92 8C 8A 8F 84 
HI HI AE 07 88 55 00 D4 DB 7F 09 60 47 9B 7F 48 93 8E 9C 95 91 8C 8A 8F 84 
HI HI AE 07 88 55 00 D4 DB 7F 09 60 4B 9F 7B 4A 92 8E 9B B9 91 8C 8B 8F 84 
HI HI AE 07 88 55 00 D4 DB 7F 09 60 4D 85    4A 92 85 9A 9E 91 8C 8B 8F 84  

AS29262C  21Jul2002
16:33-16:42(JST)
AOS   MEL  LOS  Elev
 33    96  056  19.8
Freq. 435.792-.788Hz
(JAS-2 No.105 B 0-675)

HI HI AE 07 88 55 00 D4 11 12 09 50 AB 57 7B 48 92 91 9B 75 8D 8D 8F 8D 85 
HI HI AE 07 88 55 00 D4 11 12 09 50 78 50 AE 4E 92 92 9B 7F 8D 8C 8F 8D 85 
HI HI AE 07 88 55 00 D4 11 12 09 50 45 6A 7C 4A 91 8D 9B A3 8D 8D 8F 8D 84 
HI HI AE 07 88 55 00 D4 11 12 09 50 65 70 7C 4A 91 8D 9B 8E 6D 8D 8F 8D 84 
HI HI AE 07 88 55 00 D4 11 12 09 50 4F 76 7C 49 92 8E 9B 69 8D 8D 8F 8C 84 
HI HI AE 07 88 55 00 D4 11 12 09 50 56 7C 7C 4D 92 8E 9B 87 8D 8D 8F 8C 84 
HI HI AE 07 88 55 00 D4 11 12 09 50 5C 82 7C 4A 92 8E 9B 7C 8D 8D 8F 8C 84 
HI HI AE 07 88 55 00 D4 11 12 09 50 62 85 7A 4A 91 8D 9B 57 8D 8D 8E 8C 84 
HI HI AE 07 88 55 00 D4 11 12 09 50 68 8B 79 4A 91 8D 9A 8E 8D 8D 8E 8D 64 
HI HI AE 07 88 55 00 D4 11 12 09 50 6E 8F 75 4D 91 8D 9A 75 8D 8D 8E 8C 84 
HI HI AE 07 88 55 00 D4 11 12 09 50 75 8E 75 4E 91 85 9A 73 8D 8D 8E 8C 84 
   
------------------------ FO-29の軌道要素 ------------------------------        
 
  ■ 軌道要素1:「jamsat−keps:1227」より         
          SB KEPS @ AMSAT  $ORB02206.N
          2Line Orbital Elements 02206.AMSAT

HR AMSAT ORBITAL ELEMENTS FOR AMATEUR SATELLITES IN NASA FORMAT
FROM WA5QGD FORT WORTH,TX July 25, 2002
SEND SUBSCRIBE/UNSUBSCRIBE TO majordomo@amsat.org ONLY
BID: ORB02206.N

 DECODE 2-LINE ELSETS WITH THE FOLLOWING KEY:
 1 AAAAAU 00  0  0 BBBBB.BBBBBBBB  .CCCCCCCC  00000-0  00000-0 0  DDDZ
 2 AAAAA EEE.EEEE FFF.FFFF GGGGGGG HHH.HHHH III.IIII JJ.JJJJJJJJKKKKKZ
 KEY: A-CATALOGNUM B-EPOCHTIME C-DECAY D-ELSETNUM E-INCLINATION F-RAAN
 G-ECCENTRICITY H-ARGPERIGEE I-MNANOM J-MNMOTION K-ORBITNUM Z-CHECKSUM

FO-29
1 24278U 96046B   02205.91022181  .00000037  00000-0  72267-4 0 05221
2 24278 098.5159 020.7042 0351661 037.5913 324.9266 13.52846467293098

 ■ 軌道要素2:「jamsat−keps:12028」より 
       SB KEPS @ AMSAT  $ORB02206.O
       Orbital Elements  02206.OSCAR

HR AMSAT ORBITAL ELEMENTS FOR OSCAR SATELLITES
FROM WA5QGD FORT WORTH,TX July 25, 2002
SEND SUBSCRIBE/UNSUBSCRIBE TO majordomo@amsat.org ONLY
BID: ORB02206.O
TO ALL RADIO AMATEURS BT

Satellite: FO-29
Catalog number: 24278
Epoch time:      02205.91022181
Element set:    0522
Inclination:      098.5159 deg
RA of node:       020.7042 deg
Eccentricity:    0.0351661
Arg of perigee:   037.5913 deg
Mean anomaly:     324.9266 deg
Mean motion:   13.52846467 rev/day
Decay rate:        3.7e-07 rev/day^2
Epoch rev:           29309
Checksum:              300

-------------------  FO-29(JAS-2)のテレメトリに関する情報  ---------------------- 
 
2)上記2002年7月29日(月)のテレメトリの最終行を分析しておきます.

AS29370C  29Jul2002
16:18-16:25(JST)
AOS   MEL  LOS  Elev
 36    94  149  16.3
Freq. 435.792-.788Hz
(JAS-2 No.105 B 1475-1955)
                                                                 
HI HI AE 07 88 55 00 D4 2C 94 09 39 4E 67 74 52 93 8E 9C 7C 92 8A 88 8F 85 

テレメトリ   内 容         換算算値 単 位
3C	磁気センサーZ軸=	38235.3	[nT]
3D	磁気センサX軸	=	50490.2	[nT]
4A	太陽電池発生電流=       1137.3	[mA]
4B	B充放電電流	=	 -392.8	[mA]
4C	B端子電圧	=	   15.8	[V]
4D	B中間端子電圧	=	    6.8	[V]
5A	バス電圧	=	   15.3	[V]
5B	JTA送信電力	=	  707.9	[mW]
5C 	構体温度1	=	   25.2	[℃]
5D	構体温度2	=	   28.3	[℃]
6A	構体温度3	=	   29.1	[℃]
6B	構体温度4	=	   26.3	[℃]
6C	Bセル温度	=	   30.2	[℃]

 ========================== FO-29(ふじ3号)のテレメトリ分析、QSO情報等 =====================
   
 3)[jamsat-bb:

 =================================================================================================
 
 4)JARL のホームページに運用予定が記載されていましたのでご紹介します.
       ( http://www.jarl.or.jp/Japanese/3_Fuji/new/uy.htm )
       
        *** 運用予定について ***

   4月01日(月) 〜 6月30日(日)アナログ系運用 

  *なお,運用予定は都合により,変更することがありますので,あらかじめご了承願います。

 照会先 : lab@jarl.or.jp

 最新の情報はテレホンサービス(03−3942−1000)をお聞きください。  
 以後の運用につきましては平成14年7月上旬にお知らせいたします。        
     
-----------------------    FO−20(JAS-1b)道要素   -------------------------
  
  ■ 軌道要素1 :出典はFO-29「ふじ3号」に同じ.
  
FO-20
1 20480U 90013C   02205.92369958 -.00000020  00000-0  17565-4 0 04230
2 20480 099.0183 203.1724 0540659 116.5776 249.1775 12.83318624583758
 
  ■ 軌道要素2 :出典はFO−29「ふじ3号」に同じ.
               
Satellite: FO-20
Catalog number: 20480
Epoch time:      02205.92369958
Element set:    0423
Inclination:      099.0183 deg
RA of node:       203.1724 deg
Eccentricity:    0.0540659
Arg of perigee:   116.5776 deg
Mean anomaly:     249.1775 deg
Mean motion:   12.83318624 rev/day
Decay rate:       -2.0e-07 rev/day^2
Epoch rev:           58375
Checksum:              311

-------------------------------------------------------------------------------- 
         ■ ふじ2号/FO−20/JAS-1b ■      
            
          「ふじ2号」 現況                                                                                  
             
   JAS-1b(ふじ2号)のCWテレメトリ信号に,1997年10月12日12時(JST)の
 日本上空通過時,3桁の数字が繰り返されるはずが3個の長音の繰り返しとなっているという
 異常が発見されました。この不具合は次の通過時からは回復していましたが13日15時20分の
 通過時に再び観測されました。現在はA0の送信が続いています。衛星のアナログ系中継モード
 動作は異常が無く,正常時のテレメトリ内容からは衛星の動作に異常は認められません。従って,
 直ちに衛星のミッションに影響することは無いと予想されますので,当面はアナログ系中継
 モードを継続します。衛星は既に打ち上げてから7年8ヶ月を経ておりますので,今後は監視を
 強化する予定です。アマチュア各位のレポートをお待ちします。
 -------------------------------------------------------------------------------- 
  1997年10月14日 00時35分 確認のテレメトリ音 151 KB (A0) 
  1997年10月14日 11時10分 確認のテレメトリ音 216 KB (異常キーイング) 

  以上 JARLのホ−ムページの http://www.jarl.or.jp/Japanese/3_Fuji/new/fuji.htm

===================== FO-20 ふじ2号 のテレメトリ観測結果 ====================

  3月8日(金)18:18(JST)の観測結果ではテレメトリは、以前観測した単一周波数の
正弦波がドップラー効果で周波数がずれていくのみの状態でした。
                                         
   =============   JAS-2 (ふじ3号)と現在までの情報   ===========
  
  A.電話によるふじ3号の運用情報
      社団法人日本アマチュア連盟によるサービス
           TEL .   03− 3942 − 1000
  B.アマチュア無線FAXサービス
      JARLによるふじ3号の軌道情報(オービットカレンダー)
         FAX No.  03− 3233 −0055
  C.WWWブラウザで情報を簡単に見れる人のためにJAS−2
     ふじ3号の衛星としての運用されるまでの名前)の概要、打ち上げ
     までの状況、運用中における状況を説明したホームページを紹介し
     ておきます.

     社団法人日本アマチュア無線連盟(JARL)のホームページ

          http://www.jarl.or.jp/Japanese/3_Fuji/jasmenu.htm
 
     宇宙開発事業団(NASDA)ホームページ 
          http://www.nasda.go.jp/
         打上げ衛星 :地球観測プラットフォーム技術衛星(ADEOS) 
                       アマチュア衛星3号(JAS-2)
          http://spaceboy.nasda.go.jp/note/eisei/j/Eis15h_j.html#Eis15h_01_j
     http://spaceboy.nasda.go.jp/note/eisei/j/Eis15i_j.html        

  D.JAMSATによる軌道情報の活用
        JAMSATのホームページまたはjamsat−kepsの軌道要素より
      衛星の軌道情報を得る.
     JAMSATホームページ
               URL    http://www.jamsat.or.jp
       上記ホームページでは各地で行われるアマチュア通信衛星に関する
      ミューティングのお知らせや世界のアマチュア衛星に関する情報が
      満載されています.

 ========================================================================  
     JAMSATのメンバーのご協力によりJH6MME(高山 秀造)が
    執筆・編集を担当しております.ご指摘の意見、疑問やこのようにしたら
    というアイデアがありましたら小さなことでもかまいませんので気軽に下
    記アドレスまでご連絡ください.jamsat−newsからjas2
    infoへの転載をJH4PHW局坂井さんに担当して頂いております.  
                  E-mail : jh6mme@jamsat.or.jp : jh4phw@jamsat.or.jp
 ===============================   END  ===============================